This is the latest recevied weather packets stored in our database for station/object DM4XI-13. If no packets are shown the sender has not sent any weather packets the latest 10 day(s).
| Time | Temp. | Humidity | Pressure | Rain* | Wind** | Luminosity | Snow |
|---|---|---|---|---|---|---|---|
| 1777497909 | 6.67° C | 36% | 1024.7 hPa | 0 mm | 0.89 m/s, 227° | 0 W/m² | - |
| 1777497849 | 6.67° C | 37% | 1024.6 hPa | 0 mm | 0.89 m/s, 1° | 0 W/m² | - |
| 1777497787 | 6.67° C | 36% | 1024.6 hPa | 0 mm | 1.79 m/s, 18° | 0 W/m² | - |
| 1777497726 | 6.67° C | 36% | 1024.7 hPa | 0 mm | 0.45 m/s, 190° | 0 W/m² | - |
| 1777497665 | 6.67° C | 36% | 1024.5 hPa | 0 mm | 2.24 m/s, 31° | 0 W/m² | - |
| 1777497604 | 6.67° C | 36% | 1024.5 hPa | 0 mm | 0.89 m/s, 22° | 0 W/m² | - |
| 1777497543 | 6.67° C | 36% | 1024.9 hPa | 0 mm | 3.58 m/s, 0° | 0 W/m² | - |
| 1777497482 | 6.67° C | 37% | 1024.6 hPa | 0 mm | 1.34 m/s, 347° | 0 W/m² | - |
| 1777497422 | 6.67° C | 36% | 1024.7 hPa | 0 mm | 0.45 m/s, 53° | 0 W/m² | - |
| 1777497360 | 6.67° C | 36% | 1024.6 hPa | 0 mm | 0.89 m/s, 276° | 0 W/m² | - |
| 1777497299 | 6.67° C | 36% | 1024.4 hPa | 0 mm | 0.89 m/s, 349° | 0 W/m² | - |
| 1777497238 | 6.67° C | 36% | 1024.7 hPa | 0 mm | 0 m/s | 0 W/m² | - |
| 1777497177 | 6.67° C | 37% | 1024.4 hPa | 0 mm | 0.89 m/s, 205° | 0 W/m² | - |
| 1777497116 | 6.67° C | 36% | 1024.5 hPa | 0 mm | 1.34 m/s, 304° | 0 W/m² | - |
| 1777497055 | 7.22° C | 36% | 1024.6 hPa | 0 mm | 0.89 m/s, 72° | 0 W/m² | - |
| 1777496994 | 7.22° C | 36% | 1024.6 hPa | 0 mm | 1.34 m/s, 38° | 0 W/m² | - |
| 1777496933 | 7.22° C | 36% | 1024.5 hPa | 0 mm | 0.89 m/s, 172° | 0 W/m² | - |
| 1777496872 | 7.22° C | 36% | 1024.3 hPa | 0 mm | 0.89 m/s, 278° | 0 W/m² | - |
| 1777496811 | 7.22° C | 36% | 1024.5 hPa | 0 mm | 0.89 m/s, 16° | 0 W/m² | - |
| 1777496750 | 7.22° C | 36% | 1024.5 hPa | 0 mm | 0.45 m/s, 176° | 0 W/m² | - |
| 1777496689 | 7.22° C | 36% | 1024.6 hPa | 0 mm | 0.45 m/s, 253° | 0 W/m² | - |
| 1777496629 | 7.22° C | 36% | 1024.5 hPa | 0 mm | 0.45 m/s, 324° | 0 W/m² | - |
| 1777496568 | 7.22° C | 36% | 1024.6 hPa | 0 mm | 2.24 m/s, 358° | 0 W/m² | - |
| 1777496507 | 7.22° C | 36% | 1024.5 hPa | 0 mm | 1.34 m/s, 304° | 0 W/m² | - |
| 1777496446 | 7.22° C | 36% | 1024.6 hPa | 0 mm | 1.79 m/s, 13° | 0 W/m² | - |
* Rain latest hour (hover to see other rain measurements)
** Current wind speed in m/s (hover to see current wind gust speed)